[[{"header":{"parameterUnit":"m.s-1","parameterCategory":1,"la1":30.2991,"la2":30.254,"lo1":-89.0895,"lo2":-89.0444,"dy":0.0017,"dx":0.0017,"nx":28,"ny":28,"refTime":"2024-08-21T21:00:00:Z","depth":0,"parameterNumber":2,"parameterNumberName":"U-component_of_WINDS"},"data":[0,0,0,0,0,0,0,0,0,0,0,0,0,0,0,0,0,0,0,0,0,0,0,0,0,0,0,0,0,0,0,0,0,0,0,0,0,0,0,0,0,0,0,0,0,0,0,0,0,0,0,0,0,0,0,0,0,0,-0.6652,-0.6654,0,-0.6887,-0.689,-0.6893,-0.6979,-0.6978,-0.6977,-0.6977,-0.7222,-0.7229,-0.7236,0,0,0,0,0,0,0,0,0,0,0,0,0,-0.628,-0.6286,-0.6651,-0.6654,-0.6657,-0.6887,-0.689,-0.6893,-0.6979,-0.6978,-0.6977,-0.6976,-0.722,-0.7228,-0.7237,0,0,0,0,0,0,0,0,0,0,0,0,0,-0.6471,-0.6288,-0.6651,-0.6728,-0.6737,-0.6886,-0.689,-0.6894,-0.6979,-0.6978,-0.6977,-0.6976,-0.7217,-0.7227,-0.7238,-0.7329,0,0,-0.7271,-0.7276,0,0,0,0,0,0,0,0,-0.646,-0.6485,-0.6714,-0.6723,-0.6733,-0.6903,-0.6849,-0.704,-0.698,-0.6888,-0.6977,-0.6975,-0.7117,-0.7136,-0.7183,-0.7341,-0.7351,-0.7272,-0.7279,-0.7284,-0.7287,0,0,0,0,0,0,0,-0.6447,-0.6475,-0.6745,-0.6717,-0.6729,-0.6752,-0.6778,-0.6886,-0.7006,-0.6895,-0.6902,-0.6929,-0.7122,-0.7172,-0.7189,-0.7355,-0.7272,-0.7282,-0.7289,-0.7293,-0.7601,-0.7603,0,0,0,0,0,0,-0.642,-0.6463,-0.6738,-0.6752,-0.6591,-0.6759,-0.6788,-0.685,-0.7005,-0.7028,-0.693,-0.6932,-0.7154,-0.7176,-0.7198,-0.7316,-0.7284,-0.7294,-0.73,-0.7599,-0.7601,-0.7603,0,0,0,0,0,0,-0.6412,-0.6444,-0.6728,-0.661,-0.6648,-0.6767,-0.6835,-0.6855,-0.6905,-0.7031,-0.7053,-0.6958,-0.7154,-0.7183,-0.7296,-0.7326,-0.7299,-0.7309,-0.7597,-0.76,-0.7602,-0.7551,0,0,0,0,0,0,-0.6401,-0.644,-0.6475,-0.661,-0.6653,-0.682,-0.6837,-0.686,-0.6923,-0.6928,-0.7064,-0.7085,-0.7155,-0.7279,-0.7307,-0.734,-0.7317,-0.7595,-0.7599,-0.7602,-0.7551,-0.7552,-0.7553,0,0,0,0,0,-0.6387,-0.6452,-0.6476,-0.6509,-0.6699,-0.6822,-0.6847,-0.6925,-0.6925,-0.6962,-0.7043,-0.7081,-0.7318,-0.729,-0.7322,-0.7359,-0.7594,-0.7598,-0.7601,-0.7551,-0.7552,-0.7553,0,0,0,0,0,0,-0.6319,-0.6471,-0.65,-0.661,-0.6702,-0.6836,-0.6885,-0.6924,-0.7019,-0.702,-0.7115,-0.7145,-0.7251,-0.7317,-0.7283,-0.7456,-0.7459,-0.7469,-0.7409,-0.7411,-0.7412,-0.7394,-0.7326,0,0,0,0,0,-0.6316,-0.6402,-0.6531,-0.6616,-0.666,-0.6764,-0.6821,-0.6873,-0.6973,-0.7013,-0.7102,-0.7199,-0.7296,-0.7357,-0.7453,-0.7561,-0.7592,-0.7602,-0.7603,-0.7603,-0.7611,-0.7674,-0.768,-0.7615,-0.7615,-0.7615,0,0,-0.6313,-0.6406,-0.6455,-0.6604,-0.6682,-0.677,-0.6797,-0.6888,-0.6955,-0.7027,-0.7139,-0.7208,-0.7323,-0.7434,-0.7487,-0.7492,-0.7636,-0.7608,-0.7607,-0.7615,-0.7678,-0.7684,-0.769,-0.7618,-0.7617,-0.7617,0,0,-0.6351,-0.6429,-0.6509,-0.6586,-0.6703,-0.6772,-0.6791,-0.692,-0.6968,-0.7081,-0.7138,-0.7219,-0.7383,-0.7462,-0.7524,-0.7592,-0.7631,-0.7621,-0.7625,-0.7685,-0.769,-0.7695,-0.772,-0.7728,-0.7628,-0.7628,-0.7628,0,-0.6331,-0.6464,-0.6545,-0.6634,-0.6699,-0.6767,-0.6849,-0.6921,-0.7063,-0.7107,-0.711,-0.7317,-0.7399,-0.753,-0.7546,-0.7594,-0.762,-0.7606,-0.7683,-0.7689,-0.7695,-0.772,-0.7729,-0.7626,-0.7626,-0.7627,-0.7627,0,-0.6435,-0.6527,-0.6578,-0.6712,-0.6782,-0.6867,-0.6962,-0.7024,-0.707,-0.7139,-0.7255,-0.7355,-0.7473,-0.7508,-0.7554,-0.7646,-0.7645,-0.7664,-0.7669,-0.7697,-0.7722,-0.7733,-0.7623,-0.7624,-0.7625,-0.7625,0,0,-0.6437,-0.6615,-0.6632,-0.6694,-0.6829,-0.6902,-0.699,-0.7104,-0.7155,-0.7252,-0.7329,-0.7466,-0.7485,-0.7555,-0.7611,-0.7664,-0.7712,-0.7677,-0.7681,-0.768,-0.782,-0.7805,-0.7815,-0.7739,-0.7741,-0.7743,-0.7811,0,-0.6493,-0.6652,-0.6728,-0.6855,-0.6941,-0.7008,-0.7085,-0.7176,-0.7243,-0.7327,-0.7402,-0.7498,-0.7515,-0.7558,-0.7613,-0.7694,-0.7742,-0.7691,-0.7813,-0.7816,-0.7782,-0.7828,-0.7812,-0.7871,-0.7821,-0.7823,-0.7824,0,-0.6579,-0.6674,-0.6808,-0.6933,-0.6972,-0.704,-0.715,-0.7229,-0.7335,-0.738,-0.7458,-0.7513,-0.761,-0.7607,-0.7743,-0.7706,-0.7761,-0.7809,-0.7813,-0.7828,-0.7822,-0.7844,-0.7892,-0.7901,-0.784,-0.7839,-0.7838,0,-0.6567,-0.6728,-0.683,-0.6881,-0.7029,-0.7075,-0.7139,-0.7243,-0.7307,-0.7404,-0.7447,-0.7554,-0.7613,-0.7696,-0.7779,-0.7769,-0.7907,-0.7911,-0.7948,-0.7946,-0.7974,-0.7971,-0.8032,-0.8009,-0.8008,-0.8008,-0.8008,0,-0.6621,-0.6701,-0.6826,-0.6889,-0.6981,-0.7068,-0.7157,-0.7227,-0.7319,-0.7397,-0.7462,-0.7534,-0.7639,-0.7725,-0.779,-0.7893,-0.7919,-0.7959,-0.7976,-0.7954,-0.7949,-0.7991,-0.7989,-0.8011,-0.801,-0.801,-0.8009,0,-0.6623,-0.671,-0.6825,-0.6955,-0.699,-0.7052,-0.7164,-0.7228,-0.7298,-0.7397,-0.7425,-0.7535,-0.764,-0.773,-0.7869,-0.7913,-0.8019,-0.8039,-0.7983,-0.7992,-0.8024,-0.802,-0.8114,-0.8132,-0.8096,-0.8096,-0.8096,0,-0.6652,-0.6715,-0.6851,-0.6908,-0.697,-0.706,-0.7126,-0.7214,-0.7279,-0.7405,-0.7454,-0.7563,-0.7655,-0.7819,-0.7913,-0.8019,-0.8042,-0.8068,-0.8059,-0.8035,-0.8043,-0.8038,-0.8046,-0.8068,-0.8068,-0.8068,-0.8068,0,-0.6694,-0.6734,-0.6825,-0.6931,-0.7006,-0.7094,-0.7184,-0.7227,-0.7332,-0.7403,-0.751,-0.7581,-0.7722,-0.783,-0.7946,-0.8014,-0.8059,-0.807,-0.8085,-0.8063,-0.8027,-0.8047,-0.7984,-0.8068,-0.8068,-0.8068,-0.8068,-0.8068,-0.6711,-0.677,-0.6876,-0.6975,-0.7051,-0.7134,-0.72,-0.7278,-0.7369,-0.7489,-0.7537,-0.7646,-0.7751,-0.7913,-0.798,-0.8068,-0.8075,-0.8096,-0.8101,-0.8105,-0.8102,-0.8013,-0.809,-0.809,-0.809,-0.809,-0.809,0,-0.6757,-0.6828,-0.6918,-0.7041,-0.7119,-0.7154,-0.7255,-0.7319,-0.7413,-0.7507,-0.7596,-0.7719,-0.7824,-0.7926,-0.8037,-0.8088,-0.8111,-0.8114,-0.8111,-0.8126,-0.8089,-0.8065,-0.8093,-0.8093,-0.8093,-0.8093,-0.8093,-0.8093,-0.679,-0.6892,-0.6945,-0.7086,-0.7157,-0.7263,-0.7319,-0.7396,-0.7471,-0.7605,-0.7692,-0.7757,-0.7855,-0.7973,-0.8072,-0.8099,-0.8137,-0.8134,-0.8167,-0.813,-0.8129,-0.8127,-0.8106,-0.8141,-0.8141,-0.8197,-0.8198,-0.8198]},{"header":{"parameterUnit":"m.s-1","parameterCategory":1,"la1":30.2991,"la2":30.254,"lo1":-89.0895,"lo2":-89.0444,"dy":0.0017,"dx":0.0017,"nx":28,"ny":28,"refTime":"2024-08-21T21:00:00:Z","depth":0,"parameterNumber":3,"parameterNumberName":"V-component_of_WINDS"},"data":[0,0,0,0,0,0,0,0,0,0,0,0,0,0,0,0,0,0,0,0,0,0,0,0,0,0,0,0,0,0,0,0,0,0,0,0,0,0,0,0,0,0,0,0,0,0,0,0,0,0,0,0,0,0,0,0,0,0,-3.5184,-3.5184,0,-3.5164,-3.5164,-3.5164,-3.5077,-3.5075,-3.5073,-3.5071,-3.5052,-3.5053,-3.5055,0,0,0,0,0,0,0,0,0,0,0,0,0,-3.5147,-3.5148,-3.5184,-3.5184,-3.5184,-3.5164,-3.5164,-3.5164,-3.5077,-3.5075,-3.5072,-3.507,-3.5051,-3.5053,-3.5055,0,0,0,0,0,0,0,0,0,0,0,0,0,-3.5149,-3.5148,-3.5184,-3.5138,-3.5134,-3.5164,-3.5164,-3.5164,-3.5078,-3.5075,-3.5072,-3.5069,-3.5051,-3.5053,-3.5055,-3.5129,0,0,-3.5061,-3.5062,0,0,0,0,0,0,0,0,-3.5149,-3.515,-3.5145,-3.5141,-3.5136,-3.512,-3.5144,-3.5152,-3.5079,-3.5099,-3.5071,-3.5067,-3.5077,-3.5077,-3.508,-3.5128,-3.5127,-3.5062,-3.5063,-3.5064,-3.5064,0,0,0,0,0,0,0,-3.5149,-3.515,-3.5176,-3.5145,-3.514,-3.5118,-3.5115,-3.5145,-3.5106,-3.5097,-3.5091,-3.5089,-3.5074,-3.5078,-3.5079,-3.5127,-3.5061,-3.5063,-3.5065,-3.5065,-3.5233,-3.5236,0,0,0,0,0,0,-3.5155,-3.5151,-3.5177,-3.5176,-3.5135,-3.5121,-3.5118,-3.5128,-3.5105,-3.5098,-3.5092,-3.5086,-3.5076,-3.5076,-3.5078,-3.5162,-3.5064,-3.5066,-3.5067,-3.523,-3.5234,-3.5237,0,0,0,0,0,0,-3.5154,-3.5158,-3.5178,-3.5162,-3.5162,-3.5125,-3.5138,-3.513,-3.5133,-3.5101,-3.5094,-3.5103,-3.5074,-3.5075,-3.5116,-3.516,-3.5067,-3.5068,-3.5226,-3.5231,-3.5235,-3.5331,0,0,0,0,0,0,-3.5154,-3.5158,-3.5186,-3.5163,-3.5164,-3.5217,-3.514,-3.5131,-3.5137,-3.5128,-3.511,-3.5104,-3.5071,-3.5114,-3.5119,-3.5161,-3.507,-3.5222,-3.5228,-3.5234,-3.5324,-3.5338,-3.5351,0,0,0,0,0,-3.5153,-3.5215,-3.5188,-3.5192,-3.5198,-3.522,-3.522,-3.5181,-3.5141,-3.5168,-3.5147,-3.5104,-3.5154,-3.5119,-3.5123,-3.5167,-3.5219,-3.5227,-3.5234,-3.5318,-3.5336,-3.5351,0,0,0,0,0,0,-3.5245,-3.5211,-3.5181,-3.5237,-3.5232,-3.5205,-3.5239,-3.5202,-3.5208,-3.52,-3.5151,-3.5148,-3.5196,-3.5186,-3.5147,-3.5237,-3.5179,-3.5188,-3.5242,-3.5258,-3.5272,-3.5273,-3.5072,0,0,0,0,0,-3.5272,-3.5293,-3.5261,-3.5314,-3.5313,-3.5277,-3.5285,-3.5255,-3.5248,-3.5245,-3.5227,-3.5222,-3.5236,-3.5247,-3.5258,-3.5322,-3.5316,-3.5354,-3.5368,-3.5379,-3.5387,-3.5418,-3.5435,-3.5261,-3.5261,-3.5261,0,0,-3.5328,-3.5312,-3.5328,-3.5332,-3.5324,-3.5347,-3.5275,-3.5302,-3.5318,-3.5249,-3.5287,-3.5274,-3.5265,-3.5317,-3.5339,-3.531,-3.5433,-3.5388,-3.5397,-3.5399,-3.5427,-3.5444,-3.5459,-3.5266,-3.5265,-3.5264,0,0,-3.5441,-3.5431,-3.5473,-3.5466,-3.5455,-3.543,-3.544,-3.5419,-3.5407,-3.5444,-3.5392,-3.5411,-3.5437,-3.5432,-3.5433,-3.5542,-3.5503,-3.5547,-3.5619,-3.565,-3.5664,-3.5675,-3.5714,-3.5728,-3.5555,-3.5556,-3.5556,0,-3.5512,-3.5543,-3.5499,-3.5529,-3.5532,-3.547,-3.5511,-3.5507,-3.5501,-3.5505,-3.5472,-3.5502,-3.5491,-3.5541,-3.5568,-3.5571,-3.5581,-3.5549,-3.5665,-3.5677,-3.5687,-3.5723,-3.5737,-3.5561,-3.556,-3.556,-3.5559,0,-3.563,-3.5652,-3.5688,-3.5682,-3.5689,-3.5725,-3.5686,-3.5698,-3.5668,-3.5646,-3.5684,-3.5669,-3.5676,-3.5686,-3.5657,-3.5731,-3.5713,-3.5674,-3.5615,-3.571,-3.5743,-3.5756,-3.5569,-3.5567,-3.5565,-3.5564,0,0,-3.5802,-3.577,-3.5784,-3.578,-3.5762,-3.5778,-3.5811,-3.5817,-3.5828,-3.5825,-3.5851,-3.5874,-3.5836,-3.5837,-3.5807,-3.5835,-3.5921,-3.5791,-3.579,-3.5815,-3.6001,-3.6031,-3.6048,-3.5895,-3.5897,-3.5899,-3.6002,0,-3.5909,-3.5962,-3.5923,-3.5983,-3.6002,-3.5943,-3.5971,-3.5963,-3.5944,-3.5957,-3.5936,-3.5952,-3.5902,-3.5902,-3.5927,-3.5906,-3.5958,-3.5898,-3.5918,-3.5919,-3.5921,-3.6065,-3.6097,-3.6195,-3.6014,-3.6017,-3.6018,0,-3.6041,-3.6043,-3.6105,-3.6082,-3.6088,-3.6114,-3.6116,-3.6129,-3.6119,-3.6103,-3.6104,-3.6066,-3.6095,-3.6038,-3.6078,-3.6038,-3.6044,-3.6035,-3.6037,-3.6038,-3.5974,-3.6069,-3.6225,-3.624,-3.6038,-3.6037,-3.6035,0,-3.6159,-3.6177,-3.6216,-3.6214,-3.6189,-3.6208,-3.6198,-3.6185,-3.619,-3.6192,-3.6195,-3.62,-3.6203,-3.6208,-3.6172,-3.6133,-3.6216,-3.6156,-3.6204,-3.6205,-3.6224,-3.6223,-3.6383,-3.6229,-3.6228,-3.6228,-3.6228,0,-3.6283,-3.6323,-3.6268,-3.6292,-3.6335,-3.6289,-3.6333,-3.6317,-3.6305,-3.6325,-3.6274,-3.6293,-3.6245,-3.6259,-3.6232,-3.6269,-3.6271,-3.6258,-3.625,-3.6262,-3.6264,-3.6265,-3.6258,-3.6232,-3.6231,-3.623,-3.623,0,-3.6422,-3.6387,-3.6425,-3.6397,-3.6391,-3.6424,-3.6399,-3.642,-3.6397,-3.6422,-3.6425,-3.6389,-3.6403,-3.6368,-3.6377,-3.6358,-3.6411,-3.6393,-3.6414,-3.6409,-3.6458,-3.6453,-3.6624,-3.6644,-3.6478,-3.6479,-3.6481,0,-3.6503,-3.6532,-3.6506,-3.6515,-3.6508,-3.6523,-3.6528,-3.6484,-3.6491,-3.648,-3.6503,-3.6512,-3.6518,-3.6543,-3.6518,-3.6524,-3.6505,-3.6564,-3.6506,-3.6517,-3.6505,-3.6504,-3.6506,-3.6577,-3.6579,-3.658,-3.6582,0,-3.665,-3.6631,-3.6639,-3.6642,-3.6649,-3.6649,-3.6645,-3.6655,-3.6608,-3.6619,-3.6632,-3.6636,-3.6645,-3.6655,-3.6656,-3.6645,-3.6606,-3.66,-3.6611,-3.6624,-3.6635,-3.6629,-3.6447,-3.6596,-3.6595,-3.6594,-3.6593,-3.6592,-3.6762,-3.6784,-3.6769,-3.678,-3.6772,-3.677,-3.6787,-3.6765,-3.6775,-3.6778,-3.6752,-3.6771,-3.6758,-3.6755,-3.6748,-3.6763,-3.6736,-3.6752,-3.6756,-3.6761,-3.6768,-3.6633,-3.6763,-3.6762,-3.6762,-3.6761,-3.6761,0,-3.6906,-3.6892,-3.6903,-3.6898,-3.6907,-3.6868,-3.6861,-3.6871,-3.6888,-3.6879,-3.6885,-3.69,-3.6909,-3.6884,-3.6889,-3.6905,-3.6887,-3.6908,-3.6906,-3.6905,-3.6793,-3.6782,-3.6923,-3.6923,-3.6923,-3.6923,-3.6923,-3.6923,-3.6981,-3.7017,-3.6996,-3.7026,-3.7013,-3.703,-3.703,-3.7027,-3.7019,-3.7038,-3.7045,-3.7028,-3.7012,-3.7016,-3.7022,-3.7015,-3.7019,-3.7046,-3.7032,-3.6928,-3.6913,-3.6898,-3.6887,-3.7048,-3.7048,-3.7143,-3.7144,-3.7144]}]]